Погода в Азамат-Юрте

Россия / Чеченская Республика     43°25′07″N   46°17′09″E
В апреле 2022 года жителям России запретили посещать сайт meteo.paraplan.net по решению Генеральной прокуратуры. Аудитория сайта уменьшилась в 10 раз. Владельцы сайта не видят смысла в поддержке погодного сервера в таких условиях. Сайт будет закрыт в октябре.
темп.,
°C
ветер,
м/с
пор.,
м/с
влажн.,
%
обл.,
%
осадки,
мм/ч
давл.,
гПа
погр.,
м
25 сентября, вс
вс2500:00+14з487499 1.0 1018293
03:00+14з3568100 0.9 1019116
06:00+14сз4106699 0.0 1021467
09:00+16зсз5855100 0.0 1022857
12:00+16з455332 0.0 1023861
15:00+20з23394 0.0 10211680
18:00+17ююз11480 0.0 102225
21:00+15ю22550 0.0 102318
26 сентября, пн
пн2600:00+13ю11601 0.0 102313
03:00+12ююв11640 0.0 102311
06:00+11юв22690 0.0 102214
09:00+19в46430 0.0 1022795
12:00+24в56350 0.0 10201600
15:00+24в76380 0.0 10181639
18:00+19в6106676 0.0 1018391
21:00+17в410794 0.0 1018279
27 сентября, вт
вт2700:00+15вюв36880 0.0 1017135
03:00+14вюв239124 0.0 101653
06:00+13юв12893 0.0 101516
09:00+21вюв36570 0.0 1014713
12:00+27в66390 0.0 10121437
15:00+27в664095 0.0 10101371
18:00+21в486598 0.0 1011241
21:00+17в229088 0.0 101037
28 сентября, ср
ср2800:00+16в1192100 0.0 100913
03:00+16ююв009128 0.0 100712
06:00+15юз0091100 0.0 100712
09:00+21з2264100 0.0 1007455
12:00+27ссв224041 0.0 1005988
15:00+30всв22295 0.0 10031361
18:00+24в465394 0.0 100593
21:00+19всв2385100 0.0 100644
29 сентября, чт
чт2900:00+18зюз11875 0.0 100812
03:00+19з36715 0.0 100890
06:00+18з485982 0.0 1010160
09:00+24з674177 0.0 1011722
12:00+28сз663112 0.0 10101721
15:00+28ссз4430100 0.0 10102076
18:00+24ссз114320 0.0 101112
21:00+22з1249100 0.0 101211